Weather History for PAKP - August, 2013

Change the Weather History Date:

Tuesday, August 20, 2013

  Actual Average Record
Temperature  
Mean Temperature 32 °F -  
Max Temperature 35 °F 48 °F 75 °F (2004)
Min Temperature 28 °F 34 °F 26 °F (1996)
Degree Days  
Heating Degree Days 34    
Moisture  
Dew Point 24 °F    
Average Humidity 74    
Maximum Humidity 86    
Minimum Humidity 60    
Precipitation  
Precipitation 0.00 in - - ()
Sea Level Pressure  
Sea Level Pressure 29.75 in    
Wind  
Wind Speed 14 mph (NE)    
Max Wind Speed 20 mph    
Max Gust Speed 25 mph    
Visibility 7 miles    
Events      
Averages and records for this station are not official NWS values.
T = Trace of Precipitation, MM = Missing Value Source: NWS Daily Summary

Daily Weather History Graph

Daily Weather History Graph

Search for Another Location

Airport or City:

Trip Planner

Search our weather history database for the weather conditions in past years. The results will help you decide how hot, cold, wet, or windy it might be!

Date:

Astronomy

Aug. 20, 2013 Rise Set
Actual Time 5:47 AM AKDT 10:29 PM AKDT
Civil Twilight 4:25 AM AKDT 11:49 PM AKDT
Nautical Twilight Sun does not rise Sun does not rise
Astronomical Twilight Sun does not rise Sun does not rise
Moon 9:24 PM AKDT (8/20) 5:51 AM AKDT (8/20)
Length of Visible Light 19h 23m
Length of Day
16h 41m
Full, 100% of the Moon is Illuminated
Aug 20
Full
Aug 20
Full
Aug 28
Last Quarter
Sep 5
New
Sep 12
First Quarter

Hourly Weather History & Observations

Time (AKDT) Temp. Windchill Dew Point Humidity Pressure Visibility Wind Dir Wind Speed Gust Speed Precip Events Conditions
12:16 AM 33.8 °F 24.8 °F 28.4 °F 81% 29.68 in 10.0 mi NE 12.7 mph - N/A   Overcast
12:36 AM 33.8 °F 25.3 °F 28.4 °F 81% 29.69 in 10.0 mi NE 11.5 mph 17.3 mph N/A   Overcast
12:56 AM 33.8 °F 24.8 °F 28.4 °F 81% 29.69 in 10.0 mi NE 12.7 mph - N/A   Overcast
1:16 AM 33.8 °F 24.3 °F 26.6 °F 75% 29.69 in 10.0 mi NE 13.8 mph 20.7 mph N/A   Overcast
1:36 AM 33.8 °F 24.8 °F 26.6 °F 75% 29.69 in 10.0 mi NE 12.7 mph - N/A   Overcast
1:56 AM 33.8 °F 25.3 °F 26.6 °F 75% 29.69 in 8.0 mi NE 11.5 mph 19.6 mph N/A   Overcast
2:16 AM 33.8 °F 25.3 °F 26.6 °F 75% 29.69 in 3.0 mi NE 11.5 mph 18.4 mph N/A   Overcast
2:36 AM 33.8 °F 24.8 °F 26.6 °F 75% 29.69 in 3.0 mi NE 12.7 mph 19.6 mph N/A   Overcast
2:56 AM 32.0 °F 22.1 °F 26.6 °F 80% 29.69 in 2.5 mi NE 13.8 mph - N/A   Overcast
3:16 AM 32.0 °F 22.1 °F 26.6 °F 80% 29.69 in 2.0 mi NE 13.8 mph - N/A   Overcast
3:36 AM 32.0 °F 21.6 °F 26.6 °F 80% 29.69 in 2.0 mi NE 15.0 mph 21.9 mph N/A   Overcast
3:56 AM 30.2 °F 19.8 °F 26.6 °F 86% 29.69 in 2.5 mi NE 13.8 mph 20.7 mph N/A   Overcast
4:16 AM 30.2 °F 19.3 °F 26.6 °F 86% 29.69 in 2.0 mi NE 15.0 mph 20.7 mph N/A   Overcast
4:36 AM 30.2 °F 19.3 °F 26.6 °F 86% 29.69 in 1.8 mi NE 15.0 mph 19.6 mph N/A   Overcast
4:56 AM 30.2 °F 18.5 °F 24.8 °F 80% 29.69 in 1.2 mi NE 17.3 mph 23.0 mph N/A   Overcast
5:16 AM 30.2 °F 19.3 °F 24.8 °F 80% 29.69 in 1.2 mi NE 15.0 mph 20.7 mph N/A   Overcast
5:36 AM 30.2 °F 18.9 °F 24.8 °F 80% 29.70 in 1.5 mi NE 16.1 mph - N/A   Overcast
5:56 AM 30.2 °F 18.9 °F 24.8 °F 80% 29.70 in 1.0 mi NE 16.1 mph 21.9 mph N/A   Overcast
6:16 AM 30.2 °F 19.3 °F 24.8 °F 80% 29.70 in 1.5 mi NE 15.0 mph - N/A   Overcast
6:36 AM 30.2 °F 19.3 °F 24.8 °F 80% 29.71 in 1.8 mi NE 15.0 mph 21.9 mph N/A   Overcast
6:56 AM 30.2 °F 19.8 °F 24.8 °F 80% 29.71 in 1.0 mi NE 13.8 mph 23.0 mph N/A   Overcast
7:16 AM 30.2 °F 18.5 °F 24.8 °F 80% 29.71 in 1.2 mi NE 17.3 mph 20.7 mph N/A   Overcast
7:36 AM 30.2 °F 17.8 °F 24.8 °F 80% 29.71 in 1.0 mi NE 19.6 mph 24.2 mph N/A   Overcast
7:56 AM 30.2 °F 19.3 °F 24.8 °F 80% 29.72 in 2.0 mi NE 15.0 mph 23.0 mph N/A   Overcast
8:16 AM 30.2 °F 18.9 °F 24.8 °F 80% 29.72 in 1.5 mi NE 16.1 mph 23.0 mph N/A   Overcast
8:36 AM 30.2 °F 19.8 °F 24.8 °F 80% 29.72 in 0.5 mi NE 13.8 mph 23.0 mph N/A   Overcast
8:56 AM 30.2 °F 18.5 °F 24.8 °F 80% 29.72 in 2.5 mi NE 17.3 mph 24.2 mph N/A   Mostly Cloudy
9:16 AM 30.2 °F 18.5 °F 24.8 °F 80% 29.73 in 6.0 mi NE 17.3 mph 23.0 mph N/A   Overcast
9:36 AM 30.2 °F 18.1 °F 24.8 °F 80% 29.73 in 7.0 mi NE 18.4 mph 23.0 mph N/A   Overcast
9:56 AM 30.2 °F 18.5 °F 24.8 °F 80% 29.74 in 5.0 mi NE 17.3 mph 23.0 mph N/A   Overcast
10:16 AM 30.2 °F 18.1 °F 24.8 °F 80% 29.74 in 2.5 mi NE 18.4 mph 21.9 mph N/A   Overcast
10:36 AM 30.2 °F 18.5 °F 24.8 °F 80% 29.74 in 3.0 mi NE 17.3 mph 21.9 mph N/A   Overcast
10:56 AM 30.2 °F 19.8 °F 24.8 °F 80% 29.75 in 3.0 mi NE 13.8 mph 23.0 mph N/A   Overcast
11:16 AM 30.2 °F 18.1 °F 24.8 °F 80% 29.75 in 4.0 mi NE 18.4 mph 25.3 mph N/A   Overcast
11:36 AM 30.2 °F 19.3 °F 24.8 °F 80% 29.76 in 5.0 mi NE 15.0 mph 25.3 mph N/A   Overcast
11:56 AM 30.2 °F 18.5 °F 24.8 °F 80% 29.76 in 5.0 mi NE 17.3 mph - N/A   Overcast
12:16 PM 30.2 °F 18.9 °F 24.8 °F 80% 29.76 in 10.0 mi NE 16.1 mph 23.0 mph N/A   Overcast
12:36 PM 30.2 °F 18.5 °F 24.8 °F 80% 29.77 in 5.0 mi NE 17.3 mph - N/A   Overcast
12:56 PM 30.2 °F 18.9 °F 24.8 °F 80% 29.77 in 10.0 mi NE 16.1 mph 21.9 mph N/A   Overcast
1:16 PM 32.0 °F 20.8 °F 23.0 °F 69% 29.77 in 10.0 mi NE 17.3 mph 21.9 mph N/A   Overcast
1:36 PM 33.8 °F 24.3 °F 23.0 °F 65% 29.78 in 10.0 mi NE 13.8 mph 21.9 mph N/A   Overcast
1:56 PM 32.0 °F 22.1 °F 21.2 °F 64% 29.78 in 10.0 mi NNE 13.8 mph 20.7 mph N/A   Overcast
2:16 PM 32.0 °F 21.2 °F 23.0 °F 69% 29.78 in 10.0 mi NE 16.1 mph 20.7 mph N/A   Overcast
2:36 PM 33.8 °F 23.9 °F 23.0 °F 65% 29.79 in 10.0 mi NE 15.0 mph 19.6 mph N/A   Overcast
2:56 PM 33.8 °F 24.3 °F 23.0 °F 65% 29.79 in 10.0 mi NE 13.8 mph 20.7 mph N/A   Overcast
3:16 PM 33.8 °F 24.3 °F 23.0 °F 65% 29.79 in 10.0 mi NE 13.8 mph 18.4 mph N/A   Overcast
3:36 PM 33.8 °F 23.5 °F 24.8 °F 70% 29.79 in 10.0 mi NNE 16.1 mph - N/A   Overcast
3:56 PM 35.6 °F 27.5 °F 23.0 °F 60% 29.79 in 10.0 mi NNE 11.5 mph 17.3 mph N/A   Overcast
4:16 PM 33.8 °F 24.3 °F 23.0 °F 65% 29.79 in 10.0 mi NE 13.8 mph 20.7 mph N/A   Overcast
4:36 PM 33.8 °F 23.5 °F 24.8 °F 70% 29.80 in 10.0 mi NE 16.1 mph 19.6 mph N/A   Overcast
4:56 PM 33.8 °F 25.8 °F 23.0 °F 65% 29.80 in 10.0 mi North 10.4 mph 17.3 mph N/A   Overcast
5:16 PM 33.8 °F 24.3 °F 21.2 °F 60% 29.80 in 10.0 mi NNE 13.8 mph - N/A   Mostly Cloudy
5:36 PM 33.8 °F 23.9 °F 23.0 °F 65% 29.80 in 10.0 mi NE 15.0 mph 20.7 mph N/A   Overcast
5:56 PM 33.8 °F 24.8 °F 21.2 °F 60% 29.81 in 10.0 mi NNE 12.7 mph 18.4 mph N/A   Overcast
6:16 PM 33.8 °F 23.9 °F 21.2 °F 60% 29.81 in 10.0 mi NE 15.0 mph 18.4 mph N/A   Overcast
6:36 PM 32.0 °F 21.6 °F 23.0 °F 69% 29.81 in 10.0 mi NNE 15.0 mph 19.6 mph N/A   Overcast
6:56 PM 33.8 °F 25.3 °F 23.0 °F 65% 29.81 in 10.0 mi NE 11.5 mph - N/A   Overcast
7:16 PM 33.8 °F 24.3 °F 23.0 °F 65% 29.81 in 10.0 mi NE 13.8 mph 18.4 mph N/A   Overcast
7:36 PM 32.0 °F 22.1 °F 23.0 °F 69% 29.81 in 10.0 mi NE 13.8 mph - N/A   Overcast
7:56 PM 32.0 °F 22.1 °F 23.0 °F 69% 29.81 in 10.0 mi NE 13.8 mph - N/A   Mostly Cloudy
8:36 PM 30.2 °F 19.8 °F 23.0 °F 75% 29.81 in 10.0 mi NNE 13.8 mph 18.4 mph N/A   Mostly Cloudy
8:56 PM 30.2 °F 19.8 °F 23.0 °F 75% 29.81 in 10.0 mi NNE 13.8 mph - N/A   Mostly Cloudy
9:16 PM 30.2 °F 20.2 °F 23.0 °F 75% 29.81 in 10.0 mi NE 12.7 mph - N/A   Scattered Clouds
9:36 PM 30.2 °F 21.3 °F 21.2 °F 69% 29.81 in 10.0 mi NNE 10.4 mph - N/A   Mostly Cloudy
9:56 PM 30.2 °F 21.3 °F 21.2 °F 69% 29.81 in 10.0 mi NNE 10.4 mph - N/A   Mostly Cloudy
10:16 PM 30.2 °F 20.8 °F 21.2 °F 69% 29.82 in 10.0 mi NNE 11.5 mph - N/A   Partly Cloudy
10:36 PM 30.2 °F 21.3 °F 21.2 °F 69% 29.82 in 10.0 mi NE 10.4 mph - N/A   Partly Cloudy
10:56 PM 30.2 °F 21.9 °F 21.2 °F 69% 29.82 in 10.0 mi NE 9.2 mph - N/A   Scattered Clouds
11:16 PM 28.4 °F 20.4 °F 21.2 °F 74% 29.82 in 10.0 mi ENE 8.1 mph - N/A   Mostly Cloudy
11:36 PM 28.4 °F 19.7 °F 21.2 °F 74% 29.82 in 10.0 mi ENE 9.2 mph - N/A   Partly Cloudy
11:56 PM 28.4 °F 19.1 °F 21.2 °F 74% 29.82 in 10.0 mi ENE 10.4 mph - N/A   Clear